Bluffton, MN

11:40 PM CST on January 18, 2017 (GMT -0600)
Wadena Municipal

Weather History for KADC - February, 2014

Change the Weather History Date:

Wednesday, February 5, 2014

  Actual Average Record
Temperature  
Mean Temperature -6 °F -  
Max Temperature -2 °F 17 °F 50 °F (1963)
Min Temperature -11 °F -4 °F -39 °F (1982)
Degree Days  
Heating Degree Days 72    
Moisture  
Dew Point -12 °F    
Average Humidity 76    
Maximum Humidity 84    
Minimum Humidity 66    
Precipitation  
Precipitation 0.00 in - - ()
Sea Level Pressure  
Sea Level Pressure 30.48 in    
Wind  
Wind Speed 8 mph (WNW)    
Max Wind Speed 17 mph    
Max Gust Speed 21 mph    
Visibility 8 miles    
Events Snow    
Averages and records for this station are not official NWS values.
T = Trace of Precipitation, MM = Missing Value Source: NWS Daily Summary

Daily Weather History Graph

Daily Weather History Graph

Search for Another Location

Airport or City:

Trip Planner

Search our weather history database for the weather conditions in past years. The results will help you decide how hot, cold, wet, or windy it might be!

Date:

Astronomy

Feb. 05, 2014 Rise Set
Actual Time 7:39 AM CST 5:31 PM CST
Civil Twilight 7:07 AM CST 6:03 PM CST
Nautical Twilight 6:31 AM CST 6:38 PM CST
Astronomical Twilight 5:56 AM CST 7:14 PM CST
Moon 10:29 AM CST (2/5) No Moon Set
Length of Visible Light 10h 55m
Length of Day
9h 52m
Waxing Crescent, 39% of the Moon is Illuminated
Feb 5
Waxing Crescent
Feb 6
First Quarter
Feb 14
Full
Feb 22
Last Quarter
Mar 1
New

Hourly Weather History & Observations

Time (CST) Temp. Windchill Dew Point Humidity Pressure Visibility Wind Dir Wind Speed Gust Speed Precip Events Conditions
12:15 AM -9.4 °F -20.9 °F -16.6 °F 71% 30.50 in 10.0 mi WNW 4.6 mph - N/A   Clear
12:34 AM -9.4 °F -24.3 °F -16.6 °F 71% 30.51 in 10.0 mi WNW 6.9 mph - N/A   Clear
12:53 AM -11.2 °F -23.0 °F -16.6 °F 77% 30.51 in 10.0 mi WNW 4.6 mph - N/A   Clear
1:15 AM -9.4 °F -24.3 °F -16.6 °F 71% 30.51 in 10.0 mi WNW 6.9 mph - N/A   Clear
1:34 AM -9.4 °F -24.3 °F -16.6 °F 71% 30.51 in 10.0 mi NW 6.9 mph - N/A   Clear
1:53 AM -9.4 °F -25.6 °F -16.6 °F 71% 30.51 in 10.0 mi NW 8.1 mph - N/A   Clear
2:15 AM -9.4 °F -26.8 °F -14.8 °F 77% 30.51 in 10.0 mi NW 9.2 mph - N/A   Scattered Clouds
2:35 AM -9.4 °F -27.9 °F -14.8 °F 77% 30.50 in 10.0 mi NW 10.4 mph - N/A   Overcast
2:52 AM -7.6 °F -24.6 °F -14.8 °F 71% 30.50 in 10.0 mi NW 9.2 mph - N/A   Scattered Clouds
3:15 AM -7.6 °F -24.6 °F -14.8 °F 71% 30.49 in 10.0 mi NNW 9.2 mph - N/A   Scattered Clouds
3:35 AM -7.6 °F -23.4 °F -14.8 °F 71% 30.50 in 10.0 mi NNW 8.1 mph - N/A   Overcast
3:52 AM -7.6 °F -23.4 °F -14.8 °F 71% 30.50 in 10.0 mi NW 8.1 mph - N/A   Overcast
4:15 AM -7.6 °F -20.6 °F -13.0 °F 77% 30.50 in 10.0 mi NW 5.8 mph - N/A   Mostly Cloudy
4:35 AM -7.6 °F -20.6 °F -13.0 °F 77% 30.50 in 10.0 mi NNW 5.8 mph - N/A   Scattered Clouds
4:52 AM -7.6 °F -22.1 °F -13.0 °F 77% 30.50 in 10.0 mi NNW 6.9 mph - N/A   Scattered Clouds
5:14 AM -7.6 °F -22.1 °F -13.0 °F 77% 30.50 in 10.0 mi NW 6.9 mph - N/A   Clear
5:35 AM -7.6 °F -22.1 °F -13.0 °F 77% 30.49 in 10.0 mi NW 6.9 mph - N/A   Scattered Clouds
5:52 AM -7.6 °F -23.4 °F -13.0 °F 77% 30.49 in 10.0 mi NW 8.1 mph - N/A   Scattered Clouds
6:14 AM -7.6 °F -22.1 °F -13.0 °F 77% 30.49 in 10.0 mi NW 6.9 mph - N/A   Scattered Clouds
6:35 AM -7.6 °F -22.1 °F -13.0 °F 77% 30.49 in 10.0 mi NW 6.9 mph - N/A   Mostly Cloudy
6:53 AM -7.6 °F -22.1 °F -13.0 °F 77% 30.49 in 10.0 mi WNW 6.9 mph - N/A   Overcast
7:14 AM -7.6 °F -22.1 °F -13.0 °F 77% 30.49 in 10.0 mi NW 6.9 mph - N/A   Overcast
7:35 AM -7.6 °F -22.1 °F -11.2 °F 84% 30.49 in 10.0 mi WNW 6.9 mph - N/A   Overcast
7:53 AM -7.6 °F -22.1 °F -13.0 °F 77% 30.49 in 10.0 mi WNW 6.9 mph - N/A   Mostly Cloudy
8:14 AM -7.6 °F -23.4 °F -13.0 °F 77% 30.50 in 10.0 mi WNW 8.1 mph - N/A   Clear
8:35 AM -7.6 °F -22.1 °F -13.0 °F 77% 30.50 in 10.0 mi WNW 6.9 mph - N/A   Clear
8:53 AM -7.6 °F -24.6 °F -11.2 °F 84% 30.51 in 10.0 mi NW 9.2 mph - N/A   Clear
9:15 AM -7.6 °F -23.4 °F -11.2 °F 84% 30.51 in 10.0 mi NW 8.1 mph - N/A Snow Light Snow
9:35 AM -5.8 °F -22.4 °F -11.2 °F 77% 30.51 in 10.0 mi NW 9.2 mph - N/A   Mostly Cloudy
9:52 AM -5.8 °F -22.4 °F -11.2 °F 77% 30.51 in 10.0 mi NW 9.2 mph - N/A   Overcast
10:14 AM -5.8 °F -22.4 °F -11.2 °F 77% 30.51 in 10.0 mi WNW 9.2 mph - N/A   Overcast
10:34 AM -5.8 °F -22.4 °F -11.2 °F 77% 30.51 in 10.0 mi NW 9.2 mph - N/A   Overcast
10:53 AM -4.0 °F -22.1 °F -11.2 °F 71% 30.51 in 10.0 mi WNW 11.5 mph - N/A   Overcast
11:15 AM -4.0 °F -21.2 °F -9.4 °F 78% 30.52 in 10.0 mi NW 10.4 mph - N/A   Overcast
11:35 AM -2.2 °F -20.7 °F -9.4 °F 71% 30.51 in 10.0 mi NW 12.7 mph - N/A   Overcast
11:52 AM -2.2 °F -18.9 °F -9.4 °F 71% 30.51 in 7.0 mi WNW 10.4 mph - N/A   Overcast
12:14 PM -2.2 °F -18.0 °F -9.4 °F 71% 30.50 in 10.0 mi NW 9.2 mph - N/A   Mostly Cloudy
12:35 PM -2.2 °F -19.9 °F -9.4 °F 71% 30.49 in 3.0 mi NW 11.5 mph - N/A   Haze
12:52 PM -2.2 °F -21.5 °F -9.4 °F 71% 30.49 in 3.0 mi WNW 13.8 mph - N/A   Haze
1:15 PM -2.2 °F -22.2 °F -9.4 °F 71% 30.49 in 4.0 mi NW 15.0 mph - N/A   Haze
1:35 PM -2.2 °F -21.5 °F -9.4 °F 71% 30.48 in 4.0 mi NW 13.8 mph - N/A   Haze
1:52 PM -2.2 °F -22.9 °F -9.4 °F 71% 30.48 in 4.0 mi NW 16.1 mph - N/A Snow Light Snow
2:14 PM -2.2 °F -20.7 °F -9.4 °F 71% 30.47 in 3.0 mi NW 12.7 mph - N/A Snow Light Snow
2:35 PM -2.2 °F -22.9 °F -11.2 °F 66% 30.47 in 3.0 mi NW 16.1 mph - N/A Snow Light Snow
2:52 PM -2.2 °F -22.9 °F -11.2 °F 66% 30.47 in 3.0 mi NW 16.1 mph - N/A Snow Light Snow
3:15 PM -2.2 °F -20.7 °F -9.4 °F 71% 30.46 in 3.0 mi NW 12.7 mph - N/A Snow Light Snow
3:35 PM -2.2 °F -20.7 °F -9.4 °F 71% 30.47 in 3.0 mi NW 12.7 mph - N/A Snow Light Snow
3:52 PM -2.2 °F -23.5 °F -9.4 °F 71% 30.47 in 3.0 mi NW 17.3 mph 20.7 mph N/A   Haze
4:15 PM -2.2 °F -22.9 °F -11.2 °F 66% 30.47 in 7.0 mi WNW 16.1 mph - N/A   Clear
4:35 PM -4.0 °F -23.0 °F -11.2 °F 71% 30.47 in 5.0 mi WNW 12.7 mph - N/A   Haze
4:52 PM -4.0 °F -23.7 °F -11.2 °F 71% 30.47 in 4.0 mi NW 13.8 mph - N/A Snow Light Snow
5:15 PM -4.0 °F -23.0 °F -11.2 °F 71% 30.47 in 4.0 mi NW 12.7 mph 18.4 mph N/A Snow Light Snow
5:35 PM -5.8 °F -24.4 °F -11.2 °F 77% 30.46 in 7.0 mi NW 11.5 mph - N/A Snow Light Snow
5:52 PM -5.8 °F -25.2 °F -11.2 °F 77% 30.47 in 10.0 mi NW 12.7 mph - N/A   Scattered Clouds
6:15 PM -5.8 °F -24.4 °F -11.2 °F 77% 30.47 in 7.0 mi NW 11.5 mph - N/A Snow Light Snow
6:35 PM -5.8 °F -22.4 °F -11.2 °F 77% 30.47 in 10.0 mi WNW 9.2 mph - N/A   Overcast
6:52 PM -5.8 °F -23.4 °F -11.2 °F 77% 30.47 in 7.0 mi NW 10.4 mph - N/A   Overcast
7:15 PM -5.8 °F -19.9 °F -11.2 °F 77% 30.47 in 10.0 mi WNW 6.9 mph - N/A Snow Light Snow
7:35 PM -5.8 °F -19.9 °F -11.2 °F 77% 30.46 in 7.0 mi WNW 6.9 mph - N/A Snow Light Snow
7:52 PM -7.6 °F -20.6 °F -11.2 °F 84% 30.46 in 10.0 mi WNW 5.8 mph - N/A   Overcast
8:14 PM -7.6 °F -20.6 °F -11.2 °F 84% 30.46 in 10.0 mi West 5.8 mph - N/A   Overcast
8:34 PM -7.6 °F -18.8 °F -11.2 °F 84% 30.46 in 10.0 mi West 4.6 mph - N/A   Overcast
8:53 PM -7.6 °F -18.8 °F -11.2 °F 84% 30.46 in 10.0 mi West 4.6 mph - N/A   Overcast
9:15 PM -7.6 °F -20.6 °F -11.2 °F 84% 30.45 in 10.0 mi West 5.8 mph - N/A   Overcast
9:34 PM -9.4 °F -22.7 °F -13.0 °F 84% 30.45 in 10.0 mi West 5.8 mph - N/A Snow Light Snow
9:53 PM -7.6 °F -22.1 °F -13.0 °F 77% 30.44 in 10.0 mi West 6.9 mph - N/A Snow Light Snow
10:15 PM -9.4 °F -24.3 °F -13.0 °F 84% 30.43 in 10.0 mi West 6.9 mph - N/A   Mostly Cloudy
10:34 PM -9.4 °F -24.3 °F -14.8 °F 77% 30.43 in 10.0 mi West 6.9 mph - N/A   Mostly Cloudy
10:53 PM -11.2 °F -26.4 °F -14.8 °F 84% 30.42 in 10.0 mi West 6.9 mph - N/A   Mostly Cloudy
11:15 PM -11.2 °F -24.8 °F -14.8 °F 84% 30.41 in 7.0 mi West 5.8 mph - N/A Snow Light Snow
11:34 PM -11.2 °F -20.6 °F -16.6 °F 77% 30.40 in 10.0 mi WSW 3.5 mph - N/A   Scattered Clouds
11:53 PM -11.2 °F -24.8 °F -16.6 °F 77% 30.40 in 10.0 mi West 5.8 mph - N/A   Clear